Weather History for Resia Pass, Italy

Change the Weather History Date:

Thursday, December 27, 2012

  Actual Average Record
Temperature  
Mean Temperature 28 °F -  
Max Temperature 32 °F 30 °F 46 °F (2006)
Min Temperature 23 °F 17 °F 6 °F (1996)
Degree Days  
Heating Degree Days 38    
Moisture  
Dew Point 21 °F    
Average Humidity 77    
Maximum Humidity 93    
Minimum Humidity 55    
Precipitation  
Precipitation 0.00 in - - ()
Sea Level Pressure  
Sea Level Pressure 29.94 in    
Wind  
Wind Speed 3 mph ()    
Max Wind Speed 9 mph    
Max Gust Speed -    
Visibility 5.9 miles    
Events Snow    
Averages and records for this station are not official NWS values.
T = Trace of Precipitation, MM = Missing Value Source: Averaged Metar Reports

Daily Weather History Graph

Daily Weather History Graph

Search for Another Location

Airport:

Trip Planner

Search our weather history database for the weather conditions in past years. The results will help you decide how hot, cold, wet, or windy it might be!

Date:

Astronomy

Dec. 27, 2012 Rise Set
Actual Time 8:02 AM CET 4:36 PM CET
Civil Twilight 7:27 AM CET 5:11 PM CET
Nautical Twilight 6:48 AM CET 5:49 PM CET
Astronomical Twilight 6:11 AM CET 6:26 PM CET
Moon 4:06 PM CET (12/27) 6:58 AM CET (12/27)
Length of Visible Light 9h 44m
Length of Day
8h 33m
Waxing Gibbous, 99% of the Moon is Illuminated
Dec 27
Waxing Gibbous
Dec 28
Full
Jan 5
Last Quarter
Jan 11
New
Jan 19
First Quarter

Hourly Weather History & Observations

Time (CET) Temp. Windchill Dew Point Humidity Pressure Visibility Wind Dir Wind Speed Gust Speed Precip Events Conditions
12:55 AM 24.8 °F 19.1 °F 21.2 °F 86% 30.06 in - North 4.6 mph - N/A   Clear
1:55 AM 24.8 °F 19.1 °F 19.4 °F 80% 30.04 in - North 4.6 mph - N/A   Clear
2:55 AM 23.0 °F 17.0 °F 19.4 °F 86% 30.04 in - North 4.6 mph - N/A   Clear
3:55 AM 23.0 °F 17.0 °F 19.4 °F 86% 30.04 in - North 4.6 mph - N/A   Clear
4:55 AM 23.0 °F 18.4 °F 19.4 °F 86% 30.04 in - North 3.5 mph - N/A   Clear
5:55 AM 23.0 °F 18.4 °F 19.4 °F 86% 30.01 in - North 3.5 mph - N/A   Clear
6:55 AM 23.0 °F - 19.4 °F 86% 30.01 in - Calm Calm - N/A   Clear
7:55 AM 23.0 °F - 19.4 °F 86% 30.01 in - Calm Calm - N/A   Clear
8:55 AM 23.0 °F 17.0 °F 19.4 °F 86% 29.98 in - NNE 4.6 mph - N/A   Clear
9:55 AM 28.4 °F - 21.2 °F 74% 30.01 in - Calm Calm - N/A   Clear
11:55 AM 30.2 °F 23.4 °F 15.8 °F 55% 29.95 in - SSW 6.9 mph - N/A   Clear
12:55 PM 28.4 °F 19.7 °F 17.6 °F 64% 29.92 in 6.2 mi SSW 9.2 mph - N/A   Scattered Clouds
1:55 PM 32.0 °F 25.6 °F 17.6 °F 55% 29.92 in 6.2 mi South 6.9 mph - N/A   Mostly Cloudy
2:55 PM 30.2 °F 25.4 °F 17.6 °F 60% 29.89 in 6.2 mi South 4.6 mph - N/A   Mostly Cloudy
3:55 PM 30.2 °F - 17.6 °F 60% 29.86 in 6.2 mi Calm Calm - N/A   Overcast
4:55 PM 30.2 °F - 19.4 °F 64% 29.86 in 6.2 mi Calm Calm - N/A   Overcast
5:55 PM 30.2 °F - 21.2 °F 69% 29.83 in 6.2 mi Calm Calm - N/A   Overcast
6:55 PM 30.2 °F - 23.0 °F 75% 29.83 in 6.2 mi Calm Calm - N/A   Overcast
7:55 PM 30.2 °F 24.3 °F 23.0 °F 75% 29.83 in 6.2 mi South 5.8 mph - N/A   Overcast
8:55 PM 30.2 °F 26.7 °F 26.6 °F 86% 29.83 in 4.3 mi North 3.5 mph - N/A Snow Light Snow
9:55 PM 30.2 °F 22.6 °F 28.4 °F 93% 29.86 in 4.3 mi NNE 8.1 mph - N/A   Overcast
10:55 PM 30.2 °F 25.4 °F 28.4 °F 93% 29.89 in 6.2 mi North 4.6 mph - N/A Snow Light Snow
11:55 PM 30.2 °F 25.4 °F 26.6 °F 86% 29.92 in 6.2 mi NNW 4.6 mph - N/A   Overcast